Time,TemperatureF,DewpointF,PressureIn,WindDirection,WindDirectionDegrees,WindSpeedMPH,WindSpeedGustMPH,Humidity,HourlyPrecipIn,Conditions,Clouds,dailyrainin,SoftwareType,DateUTC
2013-09-06 00:01:00,65.2,55.6,30.17,ESE,111,4.7,40.1,71,24.40,,,0.00,VWS V13.01,2013-09-06 04:01:00,
2013-09-06 00:06:00,65.5,55.6,30.17,NNE,27,1.9,40.1,70,24.40,,,0.00,VWS V13.01,2013-09-06 04:06:00,
2013-09-06 00:11:00,65.8,55.7,30.18,NE,56,0.0,40.1,70,24.40,,,0.00,VWS V13.01,2013-09-06 04:11:00,
2013-09-06 00:16:00,65.6,55.2,30.18,ENE,59,1.7,40.1,69,24.40,,,0.00,VWS V13.01,2013-09-06 04:16:00,
2013-09-06 00:21:00,65.9,55.3,30.18,NE,45,0.0,40.1,69,24.40,,,0.00,VWS V13.01,2013-09-06 04:21:00,
2013-09-06 00:26:00,65.9,55.3,30.18,East,89,1.6,40.1,69,24.40,,,0.00,VWS V13.01,2013-09-06 04:26:00,
2013-09-06 00:31:00,65.9,55.4,30.18,NNE,15,0.0,40.1,69,24.40,,,0.00,VWS V13.01,2013-09-06 04:31:00,
2013-09-06 00:36:00,65.8,55.2,30.18,ENE,73,1.0,40.1,68,24.40,,,0.00,VWS V13.01,2013-09-06 04:36:00,
2013-09-06 00:41:00,65.8,54.9,30.18,NE,44,0.0,40.1,68,24.40,,,0.00,VWS V13.01,2013-09-06 04:41:00,
2013-09-06 00:46:00,66.0,54.7,30.19,ENE,68,5.2,40.1,67,24.40,,,0.00,VWS V13.01,2013-09-06 04:46:00,
2013-09-06 00:51:00,66.0,54.5,30.19,ENE,77,3.2,40.1,66,24.40,,,0.00,VWS V13.01,2013-09-06 04:51:00,
2013-09-06 00:56:00,66.0,54.5,30.19,NE,49,0.0,40.1,66,24.40,,,0.00,VWS V13.01,2013-09-06 04:56:00,
2013-09-06 01:00:00,57.5,56.1,30.18,SE,129,0.0,40.1,95,24.40,,,0.00,VWS V13.01,2013-09-06 05:00:00,
2013-09-06 01:01:00,65.8,54.6,30.19,NNE,22,0.8,40.1,67,24.40,,,0.00,VWS V13.01,2013-09-06 05:01:00,
2013-09-06 01:02:00,57.5,56.1,30.18,SE,129,0.0,40.1,95,24.40,,,0.00,VWS V13.01,2013-09-06 05:02:00,
2013-09-06 01:03:00,57.6,56.2,30.18,SE,129,0.0,40.1,95,24.40,,,0.00,VWS V13.01,2013-09-06 05:03:00,
2013-09-06 01:06:00,65.8,55.0,30.19,East,86,0.7,40.1,68,24.40,,,0.00,VWS V13.01,2013-09-06 05:06:00,
2013-09-06 01:11:00,65.6,55.0,30.19,NE,55,6.2,40.1,69,24.40,,,0.00,VWS V13.01,2013-09-06 05:11:00,
2013-09-06 01:16:00,65.4,54.8,30.19,NE,45,5.2,40.1,69,24.40,,,0.00,VWS V13.01,2013-09-06 05:16:00,
2013-09-06 01:21:00,65.3,54.4,30.19,ENE,63,8.8,40.1,68,24.40,,,0.00,VWS V13.01,2013-09-06 05:21:00,
2013-09-06 01:26:00,65.3,53.9,30.19,ENE,63,3.0,40.1,67,24.40,,,0.00,VWS V13.01,2013-09-06 05:26:00,
2013-09-06 01:31:00,65.2,53.5,30.19,NE,38,1.9,40.1,66,24.40,,,0.00,VWS V13.01,2013-09-06 05:31:00,
2013-09-06 01:36:00,65.3,53.7,30.19,East,83,3.1,40.1,66,24.40,,,0.00,VWS V13.01,2013-09-06 05:36:00,
2013-09-06 01:41:00,65.4,54.4,30.20,NE,41,3.0,40.1,68,24.40,,,0.00,VWS V13.01,2013-09-06 05:41:00,
2013-09-06 01:46:00,65.2,54.9,30.19,NE,35,0.0,40.1,69,24.40,,,0.00,VWS V13.01,2013-09-06 05:46:00,
2013-09-06 01:51:00,65.2,55.3,30.20,NE,56,0.0,40.1,70,24.40,,,0.00,VWS V13.01,2013-09-06 05:51:00,
2013-09-06 01:55:00,64.9,54.9,30.20,NNE,20,0.0,40.1,70,24.40,,,0.00,VWS V13.01,2013-09-06 05:55:00,
2013-09-06 02:00:00,64.7,54.3,30.20,SE,124,0.0,40.1,69,24.40,,,0.00,VWS V13.01,2013-09-06 06:00:00,
2013-09-06 02:05:00,64.6,53.9,30.20,NE,48,2.1,40.1,68,24.40,,,0.00,VWS V13.01,2013-09-06 06:05:00,
2013-09-06 02:10:00,64.6,54.0,30.20,ENE,66,4.6,40.1,69,24.40,,,0.00,VWS V13.01,2013-09-06 06:10:00,
2013-09-06 02:15:00,64.4,54.1,30.20,ENE,70,0.0,40.1,69,24.40,,,0.00,VWS V13.01,2013-09-06 06:15:00,
2013-09-06 02:20:00,64.2,54.1,30.20,ENE,73,4.5,40.1,70,24.40,,,0.00,VWS V13.01,2013-09-06 06:20:00,
2013-09-06 02:25:00,64.0,54.2,30.20,ESE,107,0.0,40.1,70,24.40,,,0.00,VWS V13.01,2013-09-06 06:25:00,
2013-09-06 02:30:00,63.6,54.1,30.20,NE,53,0.0,40.1,71,24.40,,,0.00,VWS V13.01,2013-09-06 06:30:00,
2013-09-06 02:35:00,64.0,54.6,30.20,NE,38,0.7,40.1,72,24.40,,,0.00,VWS V13.01,2013-09-06 06:35:00,
2013-09-06 02:40:00,63.4,54.1,30.20,East,86,0.0,40.1,72,24.40,,,0.00,VWS V13.01,2013-09-06 06:40:00,
2013-09-06 02:45:00,63.6,54.5,30.20,ENE,62,4.8,40.1,72,24.40,,,0.00,VWS V13.01,2013-09-06 06:45:00,
2013-09-06 02:50:00,63.3,54.4,30.20,East,100,0.0,40.1,73,24.40,,,0.00,VWS V13.01,2013-09-06 06:50:00,
2013-09-06 02:55:00,63.3,54.7,30.20,ENE,73,1.6,40.1,74,24.40,,,0.00,VWS V13.01,2013-09-06 06:55:00,
2013-09-06 03:00:00,63.5,55.2,30.20,NE,45,0.0,40.1,74,24.40,,,0.00,VWS V13.01,2013-09-06 07:00:00,
2013-09-06 03:05:00,63.7,55.5,30.20,North,10,0.0,40.1,75,24.40,,,0.00,VWS V13.01,2013-09-06 07:05:00,
2013-09-06 03:10:00,63.3,55.3,30.20,NNE,15,0.0,40.1,75,24.40,,,0.00,VWS V13.01,2013-09-06 07:10:00,
2013-09-06 03:15:00,63.1,55.4,30.20,NNE,15,0.0,40.1,76,24.40,,,0.00,VWS V13.01,2013-09-06 07:15:00,
2013-09-06 03:20:00,62.8,55.4,30.20,NNE,15,0.0,40.1,77,24.40,,,0.00,VWS V13.01,2013-09-06 07:20:00,
2013-09-06 03:25:00,62.4,55.3,30.20,NNE,15,0.0,40.1,78,24.40,,,0.00,VWS V13.01,2013-09-06 07:25:00,
2013-09-06 03:30:00,62.4,55.6,30.20,NNE,15,0.0,40.1,78,24.40,,,0.00,VWS V13.01,2013-09-06 07:30:00,
2013-09-06 03:35:00,62.1,55.7,30.20,NNE,15,0.0,40.1,80,24.40,,,0.00,VWS V13.01,2013-09-06 07:35:00,
2013-09-06 03:40:00,61.7,55.4,30.20,NNE,15,0.0,40.1,80,24.40,,,0.00,VWS V13.01,2013-09-06 07:40:00,
2013-09-06 03:45:00,61.4,55.3,30.20,NNE,15,0.0,40.1,80,24.40,,,0.00,VWS V13.01,2013-09-06 07:45:00,
2013-09-06 03:50:00,61.3,55.5,30.20,NNE,15,0.0,40.1,81,24.40,,,0.00,VWS V13.01,2013-09-06 07:50:00,
2013-09-06 03:55:00,60.9,55.3,30.20,NNE,15,0.0,40.1,82,24.40,,,0.00,VWS V13.01,2013-09-06 07:55:00,
2013-09-06 04:00:00,60.9,55.6,30.20,NNE,15,0.0,40.1,83,24.40,,,0.00,VWS V13.01,2013-09-06 08:00:00,
2013-09-06 04:05:00,60.8,55.7,30.20,NE,55,0.0,40.1,83,24.40,,,0.00,VWS V13.01,2013-09-06 08:05:00,
2013-09-06 04:10:00,60.6,55.7,30.21,NNW,343,1.0,40.1,84,24.40,,,0.00,VWS V13.01,2013-09-06 08:10:00,
2013-09-06 04:15:00,60.4,55.5,30.20,ENE,63,0.0,40.1,84,24.40,,,0.00,VWS V13.01,2013-09-06 08:15:00,
2013-09-06 04:20:00,60.4,55.5,30.20,NNW,335,0.0,40.1,84,24.40,,,0.00,VWS V13.01,2013-09-06 08:20:00,
2013-09-06 04:25:00,60.6,55.8,30.21,North,10,0.0,40.1,84,24.40,,,0.00,VWS V13.01,2013-09-06 08:25:00,
2013-09-06 04:30:00,60.7,55.8,30.21,North,3,0.0,40.1,84,24.40,,,0.00,VWS V13.01,2013-09-06 08:30:00,
2013-09-06 04:35:00,60.5,55.7,30.21,NNW,338,1.9,40.1,84,24.40,,,0.00,VWS V13.01,2013-09-06 08:35:00,
2013-09-06 04:40:00,60.4,55.6,30.21,North,356,4.0,40.1,84,24.40,,,0.00,VWS V13.01,2013-09-06 08:40:00,
2013-09-06 04:45:00,60.2,55.5,30.21,East,89,0.0,40.1,84,24.40,,,0.00,VWS V13.01,2013-09-06 08:45:00,
2013-09-06 04:50:00,60.2,55.5,30.22,NE,35,0.0,40.1,85,24.40,,,0.00,VWS V13.01,2013-09-06 08:50:00,
2013-09-06 04:55:00,60.0,55.4,30.21,NNE,32,0.0,40.1,85,24.40,,,0.00,VWS V13.01,2013-09-06 08:55:00,
2013-09-06 05:00:00,59.9,55.3,30.22,NE,51,0.0,40.1,85,24.40,,,0.00,VWS V13.01,2013-09-06 09:00:00,
2013-09-06 05:05:00,59.8,55.3,30.22,North,6,0.0,40.1,85,24.40,,,0.00,VWS V13.01,2013-09-06 09:05:00,
2013-09-06 05:10:00,59.8,55.3,30.22,NNE,28,0.0,40.1,85,24.40,,,0.00,VWS V13.01,2013-09-06 09:10:00,
2013-09-06 05:15:00,59.8,55.4,30.22,North,350,5.0,40.1,85,24.40,,,0.00,VWS V13.01,2013-09-06 09:15:00,
2013-09-06 05:20:00,59.6,55.2,30.22,NNW,339,1.2,40.1,86,24.40,,,0.00,VWS V13.01,2013-09-06 09:20:00,
2013-09-06 05:25:00,59.5,55.2,30.22,NNW,339,0.0,40.1,86,24.40,,,0.00,VWS V13.01,2013-09-06 09:25:00,
2013-09-06 05:30:00,59.5,55.2,30.22,NNW,339,0.0,40.1,86,24.40,,,0.00,VWS V13.01,2013-09-06 09:30:00,
2013-09-06 05:35:00,59.4,55.2,30.22,NNW,339,0.0,40.1,86,24.40,,,0.00,VWS V13.01,2013-09-06 09:35:00,
2013-09-06 05:40:00,59.4,55.3,30.22,NNW,339,0.0,40.1,86,24.40,,,0.00,VWS V13.01,2013-09-06 09:40:00,
2013-09-06 05:45:00,59.2,55.2,30.22,NNW,339,0.0,40.1,87,24.40,,,0.00,VWS V13.01,2013-09-06 09:45:00,
2013-09-06 05:50:00,59.1,55.2,30.23,NNW,339,0.0,40.1,87,24.40,,,0.00,VWS V13.01,2013-09-06 09:50:00,
2013-09-06 05:55:00,58.9,55.2,30.23,NNW,339,0.0,40.1,87,24.40,,,0.00,VWS V13.01,2013-09-06 09:55:00,
2013-09-06 06:00:00,58.7,55.1,30.23,NE,51,0.0,40.1,88,24.40,,,0.00,VWS V13.01,2013-09-06 10:00:00,
2013-09-06 06:05:00,58.4,55.0,30.23,NE,51,0.0,40.1,88,24.40,,,0.00,VWS V13.01,2013-09-06 10:05:00,
2013-09-06 06:10:00,58.4,55.0,30.23,NE,51,0.0,40.1,89,24.40,,,0.00,VWS V13.01,2013-09-06 10:10:00,
2013-09-06 06:15:00,58.1,54.9,30.23,NE,51,0.0,40.1,89,24.40,,,0.00,VWS V13.01,2013-09-06 10:15:00,
2013-09-06 06:20:00,58.1,55.1,30.23,NE,51,0.0,40.1,90,24.40,,,0.00,VWS V13.01,2013-09-06 10:20:00,
2013-09-06 06:25:00,57.8,54.8,30.23,NE,51,0.0,40.1,90,24.40,,,0.00,VWS V13.01,2013-09-06 10:25:00,
2013-09-06 06:30:00,58.0,54.9,30.23,NE,48,2.8,40.1,89,24.40,,,0.00,VWS V13.01,2013-09-06 10:30:00,
2013-09-06 06:35:00,58.1,55.0,30.24,North,10,0.0,40.1,89,24.40,,,0.00,VWS V13.01,2013-09-06 10:35:00,
2013-09-06 06:40:00,58.1,54.8,30.24,NE,46,1.4,40.1,89,24.40,,,0.00,VWS V13.01,2013-09-06 10:40:00,
2013-09-06 06:45:00,58.2,54.9,30.24,NE,35,2.0,40.1,89,24.40,,,0.00,VWS V13.01,2013-09-06 10:45:00,
2013-09-06 06:50:00,58.5,55.2,30.24,NNW,338,0.0,40.1,89,24.40,,,0.00,VWS V13.01,2013-09-06 10:50:00,
2013-09-06 06:55:00,58.6,55.2,30.24,ENE,65,0.7,40.1,89,24.40,,,0.00,VWS V13.01,2013-09-06 10:55:00,
2013-09-06 07:00:00,58.9,55.5,30.24,ENE,72,0.9,40.1,88,24.40,,,0.00,VWS V13.01,2013-09-06 11:00:00,
2013-09-06 07:05:00,59.2,55.8,30.24,NE,39,0.0,40.1,89,24.40,,,0.00,VWS V13.01,2013-09-06 11:05:00,
2013-09-06 07:10:00,59.7,56.3,30.24,NE,39,0.0,40.1,88,24.40,,,0.00,VWS V13.01,2013-09-06 11:10:00,
2013-09-06 07:15:00,60.1,56.5,30.25,NNE,24,0.0,40.1,88,24.40,,,0.00,VWS V13.01,2013-09-06 11:15:00,
2013-09-06 07:20:00,61.2,57.0,30.25,NNE,24,0.0,40.1,86,24.40,,,0.00,VWS V13.01,2013-09-06 11:20:00,
2013-09-06 07:25:00,62.5,57.7,30.25,NNE,24,0.0,40.1,84,24.40,,,0.00,VWS V13.01,2013-09-06 11:25:00,
2013-09-06 07:30:00,63.5,58.2,30.25,NNE,24,0.0,40.1,83,24.40,,,0.00,VWS V13.01,2013-09-06 11:30:00,
2013-09-06 07:34:00,64.2,58.4,30.26,East,84,0.0,40.1,82,24.40,,,0.00,VWS V13.01,2013-09-06 11:34:00,
2013-09-06 07:39:00,64.7,58.5,30.26,East,97,5.2,40.1,80,24.40,,,0.00,VWS V13.01,2013-09-06 11:39:00,
2013-09-06 07:44:00,65.0,58.7,30.26,East,90,2.7,40.1,80,24.40,,,0.00,VWS V13.01,2013-09-06 11:44:00,
2013-09-06 07:49:00,65.3,58.7,30.26,ENE,60,0.0,40.1,79,24.40,,,0.00,VWS V13.01,2013-09-06 11:49:00,
2013-09-06 07:54:00,65.3,58.5,30.26,East,86,0.0,40.1,79,24.40,,,0.00,VWS V13.01,2013-09-06 11:54:00,
2013-09-06 07:59:00,65.2,58.4,30.26,NE,41,1.5,40.1,79,24.40,,,0.00,VWS V13.01,2013-09-06 11:59:00,
2013-09-06 08:04:00,65.7,58.5,30.26,East,79,2.1,40.1,78,24.40,,,0.00,VWS V13.01,2013-09-06 12:04:00,
2013-09-06 08:09:00,65.5,58.1,30.26,East,84,3.5,40.1,77,24.40,,,0.00,VWS V13.01,2013-09-06 12:09:00,
2013-09-06 08:14:00,66.0,58.3,30.26,North,359,0.4,40.1,76,24.40,,,0.00,VWS V13.01,2013-09-06 12:14:00,
2013-09-06 08:19:00,66.1,58.1,30.26,ENE,73,2.7,40.1,75,24.40,,,0.00,VWS V13.01,2013-09-06 12:19:00,
2013-09-06 08:24:00,66.1,58.0,30.26,ESE,104,3.2,40.1,75,24.40,,,0.00,VWS V13.01,2013-09-06 12:24:00,
2013-09-06 08:29:00,66.2,58.1,30.26,ESE,103,0.0,40.1,75,24.40,,,0.00,VWS V13.01,2013-09-06 12:29:00,
2013-09-06 08:34:00,66.6,58.5,30.26,ENE,77,5.2,40.1,75,24.40,,,0.00,VWS V13.01,2013-09-06 12:34:00,
2013-09-06 08:39:00,66.6,58.2,30.26,East,96,6.9,40.1,74,24.40,,,0.00,VWS V13.01,2013-09-06 12:39:00,
2013-09-06 08:44:00,66.9,58.1,30.26,NE,45,5.5,40.1,73,24.40,,,0.00,VWS V13.01,2013-09-06 12:44:00,
2013-09-06 08:49:00,66.7,57.9,30.26,East,87,6.3,40.1,73,24.40,,,0.00,VWS V13.01,2013-09-06 12:49:00,
2013-09-06 08:54:00,66.5,58.0,30.27,ENE,65,0.0,40.1,74,24.40,,,0.00,VWS V13.01,2013-09-06 12:54:00,
2013-09-06 08:59:00,67.8,58.5,30.27,NE,42,1.6,40.1,72,24.40,,,0.00,VWS V13.01,2013-09-06 12:59:00,
2013-09-06 09:04:00,68.3,58.5,30.27,ENE,63,5.4,40.1,71,24.40,,,0.00,VWS V13.01,2013-09-06 13:04:00,
2013-09-06 09:09:00,68.5,58.3,30.27,NNE,30,4.2,40.1,70,24.40,,,0.00,VWS V13.01,2013-09-06 13:09:00,
2013-09-06 09:14:00,68.3,58.4,30.28,ESE,118,3.0,40.1,71,24.40,,,0.00,VWS V13.01,2013-09-06 13:14:00,
2013-09-06 09:19:00,68.3,58.5,30.28,ESE,107,3.8,40.1,71,24.40,,,0.00,VWS V13.01,2013-09-06 13:19:00,
2013-09-06 09:24:00,68.3,58.2,30.27,East,84,4.3,40.1,70,24.40,,,0.00,VWS V13.01,2013-09-06 13:24:00,
2013-09-06 09:29:00,68.9,58.4,30.28,SE,135,0.0,40.1,69,24.40,,,0.00,VWS V13.01,2013-09-06 13:29:00,
2013-09-06 09:34:00,69.1,58.4,30.27,North,10,0.0,40.1,69,24.40,,,0.00,VWS V13.01,2013-09-06 13:34:00,
2013-09-06 09:39:00,69.7,58.7,30.28,NE,34,4.3,40.1,68,24.40,,,0.00,VWS V13.01,2013-09-06 13:39:00,
2013-09-06 09:44:00,69.8,58.7,30.27,SE,132,4.2,40.1,68,24.40,,,0.00,VWS V13.01,2013-09-06 13:44:00,
2013-09-06 09:49:00,69.5,58.7,30.28,East,82,3.2,40.1,68,24.40,,,0.00,VWS V13.01,2013-09-06 13:49:00,
2013-09-06 09:54:00,68.6,58.2,30.28,ENE,69,5.5,40.1,69,24.40,,,0.00,VWS V13.01,2013-09-06 13:54:00,
2013-09-06 09:59:00,68.2,58.1,30.28,ENE,72,3.4,40.1,70,24.40,,,0.00,VWS V13.01,2013-09-06 13:59:00,
2013-09-06 10:04:00,67.4,57.7,30.28,SE,142,3.4,40.1,71,24.40,,,0.00,VWS V13.01,2013-09-06 14:04:00,
2013-09-06 10:09:00,67.6,57.8,30.28,ENE,70,7.0,40.1,71,24.40,,,0.00,VWS V13.01,2013-09-06 14:09:00,
2013-09-06 10:14:00,68.3,58.2,30.28,ESE,110,8.4,40.1,70,24.40,,,0.00,VWS V13.01,2013-09-06 14:14:00,
2013-09-06 10:19:00,68.1,58.0,30.28,NE,56,2.6,40.1,70,24.40,,,0.00,VWS V13.01,2013-09-06 14:19:00,
2013-09-06 10:24:00,68.3,58.3,30.28,East,87,5.1,40.1,70,24.40,,,0.00,VWS V13.01,2013-09-06 14:24:00,
2013-09-06 10:29:00,69.2,58.4,30.28,ENE,72,0.0,40.1,68,24.40,,,0.00,VWS V13.01,2013-09-06 14:29:00,
2013-09-06 10:34:00,69.8,58.4,30.28,NE,55,7.3,40.1,67,24.40,,,0.00,VWS V13.01,2013-09-06 14:34:00,
2013-09-06 10:39:00,69.7,58.4,30.28,ENE,63,3.2,40.1,67,24.40,,,0.00,VWS V13.01,2013-09-06 14:39:00,
2013-09-06 10:44:00,70.7,58.9,30.28,East,94,0.0,40.1,66,24.40,,,0.00,VWS V13.01,2013-09-06 14:44:00,
2013-09-06 10:49:00,70.4,58.9,30.28,NE,55,3.0,40.1,67,24.40,,,0.00,VWS V13.01,2013-09-06 14:49:00,
2013-09-06 10:54:00,70.5,59.0,30.28,ENE,76,3.9,40.1,67,24.40,,,0.00,VWS V13.01,2013-09-06 14:54:00,
2013-09-06 10:59:00,70.7,58.8,30.28,East,80,0.0,40.1,66,24.40,,,0.00,VWS V13.01,2013-09-06 14:59:00,
2013-09-06 11:04:00,69.9,58.7,30.29,East,86,6.2,40.1,68,24.40,,,0.00,VWS V13.01,2013-09-06 15:04:00,
2013-09-06 11:09:00,70.0,58.8,30.28,ENE,69,4.7,40.1,68,24.40,,,0.00,VWS V13.01,2013-09-06 15:09:00,
2013-09-06 11:14:00,70.5,58.9,30.28,NW,311,0.0,40.1,67,24.40,,,0.00,VWS V13.01,2013-09-06 15:14:00,
2013-09-06 11:19:00,70.6,59.0,30.28,East,91,6.3,40.1,67,24.40,,,0.00,VWS V13.01,2013-09-06 15:19:00,
2013-09-06 11:24:00,70.5,58.7,30.29,SE,124,0.0,40.1,66,24.40,,,0.00,VWS V13.01,2013-09-06 15:24:00,
2013-09-06 11:29:00,69.6,58.3,30.28,SE,135,5.0,40.1,67,24.40,,,0.00,VWS V13.01,2013-09-06 15:29:00,
2013-09-06 11:34:00,69.7,58.4,30.28,North,349,2.7,40.1,67,24.40,,,0.00,VWS V13.01,2013-09-06 15:34:00,
2013-09-06 11:39:00,69.8,58.4,30.28,East,93,3.9,40.1,67,24.40,,,0.00,VWS V13.01,2013-09-06 15:39:00,
2013-09-06 11:44:00,69.7,58.4,30.28,East,84,1.3,40.1,67,24.40,,,0.00,VWS V13.01,2013-09-06 15:44:00,
2013-09-06 11:49:00,69.7,58.5,30.28,ESE,114,0.0,40.1,68,24.40,,,0.00,VWS V13.01,2013-09-06 15:49:00,
2013-09-06 11:54:00,70.1,58.7,30.28,NE,52,6.0,40.1,67,24.40,,,0.00,VWS V13.01,2013-09-06 15:54:00,
2013-09-06 11:59:00,70.5,58.5,30.28,NNE,32,0.0,40.1,66,24.40,,,0.00,VWS V13.01,2013-09-06 15:59:00,
2013-09-06 12:04:00,70.5,58.4,30.28,East,80,3.5,40.1,66,24.40,,,0.00,VWS V13.01,2013-09-06 16:04:00,
2013-09-06 12:09:00,70.0,58.3,30.28,SE,131,4.8,40.1,66,24.40,,,0.00,VWS V13.01,2013-09-06 16:09:00,
2013-09-06 12:14:00,69.7,58.2,30.28,East,89,1.2,40.1,67,24.40,,,0.00,VWS V13.01,2013-09-06 16:14:00,
2013-09-06 12:19:00,69.8,58.2,30.28,NE,51,0.0,40.1,66,24.40,,,0.00,VWS V13.01,2013-09-06 16:19:00,
2013-09-06 12:24:00,69.9,58.3,30.28,East,94,4.2,40.1,67,24.40,,,0.00,VWS V13.01,2013-09-06 16:24:00,
2013-09-06 12:29:00,69.8,58.1,30.28,SSE,149,0.0,40.1,66,24.40,,,0.00,VWS V13.01,2013-09-06 16:29:00,
2013-09-06 12:34:00,69.5,58.2,30.28,ESE,117,0.6,40.1,67,24.40,,,0.00,VWS V13.01,2013-09-06 16:34:00,
2013-09-06 12:39:00,69.0,57.8,30.27,NE,53,0.0,40.1,68,24.40,,,0.00,VWS V13.01,2013-09-06 16:39:00,
2013-09-06 12:44:00,68.9,57.8,30.27,ENE,68,0.2,40.1,68,24.40,,,0.00,VWS V13.01,2013-09-06 16:44:00,
2013-09-06 12:49:00,68.8,57.6,30.27,South,170,2.9,40.1,68,24.40,,,0.00,VWS V13.01,2013-09-06 16:49:00,
2013-09-06 12:54:00,68.4,57.3,30.27,SSE,152,6.5,40.1,68,24.40,,,0.00,VWS V13.01,2013-09-06 16:54:00,
2013-09-06 12:59:00,68.2,57.7,30.27,ESE,107,1.2,40.1,69,24.40,,,0.00,VWS V13.01,2013-09-06 16:59:00,
2013-09-06 13:04:00,68.5,57.4,30.27,SE,132,0.0,40.1,68,24.40,,,0.00,VWS V13.01,2013-09-06 17:04:00,
2013-09-06 13:08:00,68.6,57.3,30.27,NE,53,1.7,40.1,67,24.40,,,0.00,VWS V13.01,2013-09-06 17:08:00,
2013-09-06 13:13:00,69.3,58.0,30.27,ENE,59,2.4,40.1,67,24.40,,,0.00,VWS V13.01,2013-09-06 17:13:00,
2013-09-06 13:18:00,69.5,58.0,30.26,ESE,115,8.1,40.1,67,24.40,,,0.00,VWS V13.01,2013-09-06 17:18:00,
2013-09-06 13:23:00,69.5,57.8,30.26,ESE,108,4.7,40.1,66,24.40,,,0.00,VWS V13.01,2013-09-06 17:23:00,
2013-09-06 13:28:00,69.5,57.5,30.27,SE,138,0.0,40.1,66,24.40,,,0.00,VWS V13.01,2013-09-06 17:28:00,
2013-09-06 13:33:00,69.2,57.5,30.26,SSE,150,2.5,40.1,66,24.40,,,0.00,VWS V13.01,2013-09-06 17:33:00,
2013-09-06 13:38:00,69.1,57.3,30.26,SSE,165,3.5,40.1,66,24.40,,,0.00,VWS V13.01,2013-09-06 17:38:00,
2013-09-06 13:43:00,68.4,57.2,30.26,SE,132,4.8,40.1,68,24.40,,,0.00,VWS V13.01,2013-09-06 17:43:00,
2013-09-06 13:48:00,68.4,57.0,30.26,East,90,7.2,40.1,67,24.40,,,0.00,VWS V13.01,2013-09-06 17:48:00,
2013-09-06 13:53:00,68.6,56.9,30.26,NE,49,4.7,40.1,66,24.40,,,0.00,VWS V13.01,2013-09-06 17:53:00,
2013-09-06 13:58:00,69.1,57.5,30.26,ENE,65,0.0,40.1,67,24.40,,,0.00,VWS V13.01,2013-09-06 17:58:00,
2013-09-06 14:03:00,69.2,57.2,30.26,SE,128,1.6,40.1,66,24.40,,,0.00,VWS V13.01,2013-09-06 18:03:00,
2013-09-06 14:08:00,69.2,57.4,30.25,SE,141,5.7,40.1,66,24.40,,,0.00,VWS V13.01,2013-09-06 18:08:00,
2013-09-06 14:13:00,68.7,57.5,30.25,SE,134,3.0,40.1,67,24.40,,,0.00,VWS V13.01,2013-09-06 18:13:00,
2013-09-06 14:18:00,68.6,57.4,30.25,ESE,115,3.5,40.1,68,24.40,,,0.00,VWS V13.01,2013-09-06 18:18:00,
2013-09-06 14:23:00,68.6,57.4,30.25,ESE,111,0.0,40.1,68,24.40,,,0.00,VWS V13.01,2013-09-06 18:23:00,
2013-09-06 14:28:00,69.0,57.3,30.25,NE,53,5.3,40.1,66,24.40,,,0.00,VWS V13.01,2013-09-06 18:28:00,
2013-09-06 14:33:00,69.2,57.0,30.24,East,96,2.5,40.1,65,24.40,,,0.00,VWS V13.01,2013-09-06 18:33:00,
2013-09-06 14:38:00,68.9,56.5,30.24,SE,131,7.6,40.1,65,24.40,,,0.00,VWS V13.01,2013-09-06 18:38:00,
2013-09-06 14:43:00,68.6,56.8,30.24,East,100,0.0,40.1,66,24.40,,,0.00,VWS V13.01,2013-09-06 18:43:00,
2013-09-06 14:48:00,68.7,56.3,30.23,SE,128,4.8,40.1,65,24.40,,,0.00,VWS V13.01,2013-09-06 18:48:00,
2013-09-06 14:53:00,68.6,56.3,30.23,SE,145,2.9,40.1,65,24.40,,,0.00,VWS V13.01,2013-09-06 18:53:00,
2013-09-06 14:58:00,68.5,56.3,30.23,East,101,5.9,40.1,65,24.40,,,0.00,VWS V13.01,2013-09-06 18:58:00,
2013-09-06 15:03:00,68.4,56.4,30.23,SE,145,6.0,40.1,66,24.40,,,0.00,VWS V13.01,2013-09-06 19:03:00,
2013-09-06 15:08:00,68.5,56.3,30.23,ESE,110,9.3,40.1,65,24.40,,,0.00,VWS V13.01,2013-09-06 19:08:00,
2013-09-06 15:13:00,68.2,56.0,30.23,ENE,77,3.1,40.1,65,24.40,,,0.00,VWS V13.01,2013-09-06 19:13:00,
2013-09-06 15:18:00,68.4,56.1,30.23,East,83,1.6,40.1,65,24.40,,,0.00,VWS V13.01,2013-09-06 19:18:00,
2013-09-06 15:23:00,68.3,55.9,30.22,NE,56,3.4,40.1,65,24.40,,,0.00,VWS V13.01,2013-09-06 19:23:00,
2013-09-06 15:28:00,68.4,57.0,30.22,ESE,121,3.9,40.1,67,24.40,,,0.00,VWS V13.01,2013-09-06 19:28:00,
2013-09-06 15:33:00,68.4,56.9,30.22,ESE,120,4.0,40.1,67,24.40,,,0.00,VWS V13.01,2013-09-06 19:33:00,
2013-09-06 15:38:00,68.4,57.2,30.22,NE,46,0.0,40.1,67,24.40,,,0.00,VWS V13.01,2013-09-06 19:38:00,
2013-09-06 15:43:00,68.4,56.9,30.21,East,80,0.0,40.1,67,24.40,,,0.00,VWS V13.01,2013-09-06 19:43:00,
2013-09-06 15:48:00,68.3,56.6,30.21,ENE,66,8.2,40.1,66,24.40,,,0.00,VWS V13.01,2013-09-06 19:48:00,
2013-09-06 15:53:00,68.7,56.8,30.21,South,176,0.7,40.1,66,24.40,,,0.00,VWS V13.01,2013-09-06 19:53:00,
2013-09-06 15:58:00,68.5,55.9,30.21,ESE,122,1.9,40.1,64,24.40,,,0.00,VWS V13.01,2013-09-06 19:58:00,
2013-09-06 16:03:00,68.8,56.6,30.20,NNE,13,1.9,40.1,65,24.40,,,0.00,VWS V13.01,2013-09-06 20:03:00,
2013-09-06 16:08:00,68.9,56.5,30.20,SE,136,6.8,40.1,65,24.40,,,0.00,VWS V13.01,2013-09-06 20:08:00,
2013-09-06 16:13:00,68.5,55.8,30.20,ESE,111,3.3,40.1,64,24.40,,,0.00,VWS V13.01,2013-09-06 20:13:00,
2013-09-06 16:18:00,68.4,55.6,30.20,ESE,108,6.0,40.1,64,24.40,,,0.00,VWS V13.01,2013-09-06 20:18:00,
2013-09-06 16:23:00,68.4,56.0,30.20,ENE,76,0.0,40.1,64,24.40,,,0.00,VWS V13.01,2013-09-06 20:23:00,
2013-09-06 16:28:00,68.5,55.9,30.20,ENE,70,0.0,40.1,64,24.40,,,0.00,VWS V13.01,2013-09-06 20:28:00,
2013-09-06 16:33:00,68.5,56.7,30.20,ESE,121,0.0,40.1,66,24.40,,,0.00,VWS V13.01,2013-09-06 20:33:00,
2013-09-06 16:38:00,68.3,56.6,30.20,ESE,103,4.6,40.1,66,24.40,,,0.00,VWS V13.01,2013-09-06 20:38:00,
2013-09-06 16:43:00,68.3,56.3,30.20,ESE,114,3.5,40.1,66,24.40,,,0.00,VWS V13.01,2013-09-06 20:43:00,
2013-09-06 16:48:00,68.1,57.2,30.20,NNE,21,0.0,40.1,68,24.40,,,0.00,VWS V13.01,2013-09-06 20:48:00,
2013-09-06 16:53:00,68.0,56.8,30.20,SE,127,3.2,40.1,68,24.40,,,0.00,VWS V13.01,2013-09-06 20:53:00,
2013-09-06 16:58:00,68.0,56.6,30.20,SE,138,4.2,40.1,67,24.40,,,0.00,VWS V13.01,2013-09-06 20:58:00,
2013-09-06 17:03:00,67.9,57.2,30.20,ESE,114,4.3,40.1,69,24.40,,,0.00,VWS V13.01,2013-09-06 21:03:00,
2013-09-06 17:08:00,68.1,57.7,30.20,ESE,114,1.4,40.1,69,24.40,,,0.00,VWS V13.01,2013-09-06 21:08:00,
2013-09-06 17:13:00,68.2,57.9,30.20,ESE,112,0.0,40.1,70,24.40,,,0.00,VWS V13.01,2013-09-06 21:13:00,
2013-09-06 17:18:00,68.2,57.8,30.20,SSE,150,1.0,40.1,69,24.40,,,0.00,VWS V13.01,2013-09-06 21:18:00,
2013-09-06 17:23:00,68.1,57.3,30.20,SSE,152,3.4,40.1,68,24.40,,,0.00,VWS V13.01,2013-09-06 21:23:00,
2013-09-06 17:28:00,67.9,56.9,30.20,SE,128,0.7,40.1,68,24.40,,,0.00,VWS V13.01,2013-09-06 21:28:00,
2013-09-06 17:33:00,67.8,57.3,30.20,SE,125,0.9,40.1,69,24.40,,,0.00,VWS V13.01,2013-09-06 21:33:00,
2013-09-06 17:38:00,67.7,57.5,30.20,East,93,0.0,40.1,70,24.40,,,0.00,VWS V13.01,2013-09-06 21:38:00,
2013-09-06 17:43:00,67.7,57.7,30.20,SSE,163,0.0,40.1,70,24.40,,,0.00,VWS V13.01,2013-09-06 21:43:00,
2013-09-06 17:48:00,67.6,57.5,30.20,ESE,107,4.5,40.1,70,24.40,,,0.00,VWS V13.01,2013-09-06 21:48:00,
2013-09-06 17:53:00,67.6,57.5,30.19,ESE,118,7.3,40.1,70,24.40,,,0.00,VWS V13.01,2013-09-06 21:53:00,
2013-09-06 17:58:00,67.3,57.3,30.20,SSE,162,0.0,40.1,70,24.40,,,0.00,VWS V13.01,2013-09-06 21:58:00,
2013-09-06 18:03:00,67.4,57.6,30.20,SE,132,0.0,40.1,71,24.40,,,0.00,VWS V13.01,2013-09-06 22:03:00,
2013-09-06 18:08:00,67.5,57.8,30.19,SE,129,0.0,40.1,71,24.40,,,0.00,VWS V13.01,2013-09-06 22:08:00,
2013-09-06 18:13:00,67.3,57.6,30.19,SE,142,0.0,40.1,71,24.40,,,0.00,VWS V13.01,2013-09-06 22:13:00,
2013-09-06 18:18:00,67.5,57.9,30.19,South,173,3.3,40.1,71,24.40,,,0.00,VWS V13.01,2013-09-06 22:18:00,
2013-09-06 18:23:00,67.3,57.5,30.19,East,94,0.0,40.1,71,24.40,,,0.00,VWS V13.01,2013-09-06 22:23:00,
2013-09-06 18:28:00,67.1,57.6,30.19,ESE,107,0.0,40.1,72,24.40,,,0.00,VWS V13.01,2013-09-06 22:28:00,
2013-09-06 18:33:00,66.9,57.4,30.19,ESE,121,1.6,40.1,72,24.40,,,0.00,VWS V13.01,2013-09-06 22:33:00,
2013-09-06 18:38:00,67.0,57.7,30.19,SE,129,0.0,40.1,72,24.40,,,0.00,VWS V13.01,2013-09-06 22:38:00,
2013-09-06 18:43:00,67.0,57.8,30.19,SE,129,0.0,40.1,72,24.40,,,0.00,VWS V13.01,2013-09-06 22:43:00,
2013-09-06 18:47:00,66.9,57.9,30.19,SE,129,0.0,40.1,73,24.40,,,0.00,VWS V13.01,2013-09-06 22:47:00,
2013-09-06 18:52:00,66.9,58.0,30.19,SE,129,0.0,40.1,73,24.40,,,0.00,VWS V13.01,2013-09-06 22:52:00,
2013-09-06 18:57:00,66.8,58.0,30.19,SE,129,0.0,40.1,73,24.40,,,0.00,VWS V13.01,2013-09-06 22:57:00,
2013-09-06 19:02:00,66.8,58.0,30.19,SE,129,0.0,40.1,73,24.40,,,0.00,VWS V13.01,2013-09-06 23:02:00,
2013-09-06 19:07:00,66.4,57.8,30.19,SE,129,0.0,40.1,74,24.40,,,0.00,VWS V13.01,2013-09-06 23:07:00,
2013-09-06 19:12:00,66.4,58.1,30.19,SE,129,0.0,40.1,75,24.40,,,0.00,VWS V13.01,2013-09-06 23:12:00,
2013-09-06 19:17:00,65.8,57.8,30.19,SE,129,0.0,40.1,76,24.40,,,0.00,VWS V13.01,2013-09-06 23:17:00,
2013-09-06 19:22:00,65.4,57.8,30.19,SE,129,0.0,40.1,76,24.40,,,0.00,VWS V13.01,2013-09-06 23:22:00,
2013-09-06 19:27:00,65.1,57.9,30.19,SE,129,0.0,40.1,78,24.40,,,0.00,VWS V13.01,2013-09-06 23:27:00,
2013-09-06 19:32:00,64.9,58.0,30.19,SE,129,0.0,40.1,78,24.40,,,0.00,VWS V13.01,2013-09-06 23:32:00,
2013-09-06 19:37:00,64.6,57.9,30.19,SE,129,0.0,40.1,79,24.40,,,0.00,VWS V13.01,2013-09-06 23:37:00,
2013-09-06 19:42:00,64.2,57.9,30.20,SE,129,0.0,40.1,80,24.40,,,0.00,VWS V13.01,2013-09-06 23:42:00,
2013-09-06 19:47:00,64.3,58.2,30.20,SE,129,0.0,40.1,80,24.40,,,0.00,VWS V13.01,2013-09-06 23:47:00,
2013-09-06 19:52:00,63.9,58.0,30.20,SE,129,0.0,40.1,81,24.40,,,0.00,VWS V13.01,2013-09-06 23:52:00,
2013-09-06 19:57:00,63.8,58.1,30.20,SE,129,0.0,40.1,82,24.40,,,0.00,VWS V13.01,2013-09-06 23:57:00,
2013-09-06 20:02:00,63.6,58.1,30.20,SE,129,0.0,40.1,82,24.40,,,0.00,VWS V13.01,2013-09-07 00:02:00,
2013-09-06 20:07:00,63.7,58.3,30.20,SE,129,0.0,40.1,83,24.40,,,0.00,VWS V13.01,2013-09-07 00:07:00,
2013-09-06 20:12:00,63.1,57.9,30.20,SE,129,0.0,40.1,83,24.40,,,0.00,VWS V13.01,2013-09-07 00:12:00,
2013-09-06 20:17:00,63.2,58.1,30.20,SE,129,0.0,40.1,84,24.40,,,0.00,VWS V13.01,2013-09-07 00:17:00,
2013-09-06 20:22:00,62.8,57.8,30.20,SE,129,0.0,40.1,84,24.40,,,0.00,VWS V13.01,2013-09-07 00:22:00,
2013-09-06 20:27:00,62.7,57.8,30.20,SE,129,0.0,40.1,84,24.40,,,0.00,VWS V13.01,2013-09-07 00:27:00,
2013-09-06 20:32:00,62.2,57.4,30.20,SE,129,0.0,40.1,84,24.40,,,0.00,VWS V13.01,2013-09-07 00:32:00,
2013-09-06 20:37:00,62.2,57.6,30.20,SE,129,0.0,40.1,85,24.40,,,0.00,VWS V13.01,2013-09-07 00:37:00,
2013-09-06 20:42:00,62.3,57.9,30.20,SE,129,0.0,40.1,86,24.40,,,0.00,VWS V13.01,2013-09-07 00:42:00,
2013-09-06 20:47:00,62.1,57.8,30.20,SE,129,0.0,40.1,86,24.40,,,0.00,VWS V13.01,2013-09-07 00:47:00,
2013-09-06 20:52:00,61.9,57.8,30.20,SE,129,0.0,40.1,86,24.40,,,0.00,VWS V13.01,2013-09-07 00:52:00,
2013-09-06 20:57:00,61.5,57.5,30.20,SE,129,0.0,40.1,87,24.40,,,0.00,VWS V13.01,2013-09-07 00:57:00,
2013-09-06 21:02:00,61.5,57.7,30.20,SE,129,0.0,40.1,87,24.40,,,0.00,VWS V13.01,2013-09-07 01:02:00,
2013-09-06 21:07:00,61.3,57.5,30.20,SE,129,0.0,40.1,87,24.40,,,0.00,VWS V13.01,2013-09-07 01:07:00,
2013-09-06 21:12:00,61.1,57.4,30.20,SE,129,0.0,40.1,88,24.40,,,0.00,VWS V13.01,2013-09-07 01:12:00,
2013-09-06 21:17:00,61.2,57.5,30.20,SE,129,0.0,40.1,88,24.40,,,0.00,VWS V13.01,2013-09-07 01:17:00,
2013-09-06 21:22:00,61.0,57.4,30.20,SE,129,0.0,40.1,88,24.40,,,0.00,VWS V13.01,2013-09-07 01:22:00,
2013-09-06 21:27:00,60.9,57.5,30.19,SE,129,0.0,40.1,88,24.40,,,0.00,VWS V13.01,2013-09-07 01:27:00,
2013-09-06 21:32:00,60.7,57.4,30.20,SE,129,0.0,40.1,89,24.40,,,0.00,VWS V13.01,2013-09-07 01:32:00,
2013-09-06 21:37:00,60.8,57.6,30.20,SE,129,0.0,40.1,89,24.40,,,0.00,VWS V13.01,2013-09-07 01:37:00,
2013-09-06 21:42:00,60.6,57.5,30.20,SE,129,0.0,40.1,89,24.40,,,0.00,VWS V13.01,2013-09-07 01:42:00,
2013-09-06 21:47:00,60.5,57.5,30.19,SE,129,0.0,40.1,90,24.40,,,0.00,VWS V13.01,2013-09-07 01:47:00,
2013-09-06 21:52:00,60.3,57.4,30.19,SE,129,0.0,40.1,90,24.40,,,0.00,VWS V13.01,2013-09-07 01:52:00,
2013-09-06 21:57:00,60.1,57.3,30.19,SE,129,0.0,40.1,91,24.40,,,0.00,VWS V13.01,2013-09-07 01:57:00,
2013-09-06 22:02:00,59.9,57.3,30.19,SE,129,0.0,40.1,91,24.40,,,0.00,VWS V13.01,2013-09-07 02:02:00,
2013-09-06 22:07:00,59.9,57.4,30.19,SE,129,0.0,40.1,91,24.40,,,0.00,VWS V13.01,2013-09-07 02:07:00,
2013-09-06 22:12:00,59.5,57.1,30.19,SE,129,0.0,40.1,92,24.40,,,0.00,VWS V13.01,2013-09-07 02:12:00,
2013-09-06 22:17:00,59.8,57.5,30.19,SE,129,0.0,40.1,92,24.40,,,0.00,VWS V13.01,2013-09-07 02:17:00,
2013-09-06 22:22:00,59.4,57.1,30.20,SE,129,0.0,40.1,92,24.40,,,0.00,VWS V13.01,2013-09-07 02:22:00,
2013-09-06 22:27:00,59.4,57.1,30.20,SE,129,0.0,40.1,92,24.40,,,0.00,VWS V13.01,2013-09-07 02:27:00,
2013-09-06 22:32:00,59.4,57.2,30.20,SE,129,0.0,40.1,92,24.40,,,0.00,VWS V13.01,2013-09-07 02:32:00,
2013-09-06 22:37:00,59.2,57.0,30.19,SE,129,0.0,40.1,92,24.40,,,0.00,VWS V13.01,2013-09-07 02:37:00,
2013-09-06 22:42:00,59.3,57.1,30.19,SE,129,0.0,40.1,92,24.40,,,0.00,VWS V13.01,2013-09-07 02:42:00,
2013-09-06 22:47:00,59.2,57.1,30.19,SE,129,0.0,40.1,93,24.40,,,0.00,VWS V13.01,2013-09-07 02:47:00,
2013-09-06 22:52:00,59.1,56.9,30.19,SE,129,0.0,40.1,92,24.40,,,0.00,VWS V13.01,2013-09-07 02:52:00,
2013-09-06 22:57:00,58.9,56.8,30.19,SE,129,0.0,40.1,93,24.40,,,0.00,VWS V13.01,2013-09-07 02:57:00,
2013-09-06 23:02:00,58.9,56.8,30.19,SE,129,0.0,40.1,93,24.40,,,0.00,VWS V13.01,2013-09-07 03:02:00,
2013-09-06 23:07:00,58.9,56.8,30.19,SE,129,0.0,40.1,93,24.40,,,0.00,VWS V13.01,2013-09-07 03:07:00,
2013-09-06 23:12:00,58.8,56.9,30.18,SE,129,0.0,40.1,93,24.40,,,0.00,VWS V13.01,2013-09-07 03:12:00,
2013-09-06 23:17:00,58.4,56.6,30.18,SE,129,0.0,40.1,94,24.40,,,0.00,VWS V13.01,2013-09-07 03:17:00,
2013-09-06 23:22:00,58.4,56.7,30.18,SE,129,0.0,40.1,94,24.40,,,0.00,VWS V13.01,2013-09-07 03:22:00,
2013-09-06 23:27:00,58.3,56.7,30.18,SE,129,0.0,40.1,94,24.40,,,0.00,VWS V13.01,2013-09-07 03:27:00,
2013-09-06 23:32:00,58.1,56.6,30.18,SE,129,0.0,40.1,95,24.40,,,0.00,VWS V13.01,2013-09-07 03:32:00,
2013-09-06 23:37:00,58.0,56.5,30.18,SE,129,0.0,40.1,95,24.40,,,0.00,VWS V13.01,2013-09-07 03:37:00,
2013-09-06 23:42:00,57.9,56.4,30.18,SE,129,0.0,40.1,95,24.40,,,0.00,VWS V13.01,2013-09-07 03:42:00,
2013-09-06 23:47:00,57.7,56.3,30.18,SE,129,0.0,40.1,95,24.40,,,0.00,VWS V13.01,2013-09-07 03:47:00,
2013-09-06 23:52:00,57.8,56.4,30.18,SE,129,0.0,40.1,95,24.40,,,0.00,VWS V13.01,2013-09-07 03:52:00,
2013-09-06 23:57:00,57.7,56.3,30.18,SE,129,0.0,40.1,95,24.40,,,0.00,VWS V13.01,2013-09-07 03:57:00,